| time (UTC) | temp F | wind direction | speed knots | gust knots | rain 1hr in | rain 24hr in | rain mn in | humidity % | barometer mb |
| 20260509034537 | 51 | 5 | 1.7 | 7.8 | 0.00 | 0.00 | 0.00 | 79 | 1017.0 |
| 20260509033023 | 51 | 16 | 5.2 | 7.0 | 0.00 | 0.00 | 0.00 | 80 | 1016.7 |
| 20260509031516 | 51 | 312 | 2.6 | 10.4 | 0.00 | 0.00 | 0.00 | 79 | 1016.7 |
| 20260509030047 | 51 | 342 | 7.0 | 10.4 | 0.00 | 0.00 | 0.00 | 78 | 1016.7 |
| 20260509024522 | 51 | 360 | 5.2 | 8.7 | 0.00 | 0.00 | 0.00 | 79 | 1016.9 |
| 20260509023014 | 51 | 329 | 2.6 | 6.1 | 0.00 | 0.00 | 0.00 | 79 | 1017.1 |
| 20260509021536 | 51 | 346 | 1.7 | 4.3 | 0.00 | 0.00 | 0.00 | 79 | 1017.1 |
| 20260509020018 | 52 | 360 | 3.5 | 9.6 | 0.00 | 0.00 | 0.00 | 77 | 1017.0 |
| 20260509014515 | 52 | 15 | 2.6 | 7.8 | 0.00 | 0.00 | 0.00 | 76 | 1017.1 |
| 20260509013028 | 52 | 13 | 4.3 | 7.0 | 0.00 | 0.00 | 0.00 | 76 | 1017.0 |
| 20260509011522 | 52 | 294 | 2.6 | 5.2 | 0.00 | 0.00 | 0.00 | 77 | 1017.1 |
| 20260509010013 | 52 | 355 | 7.0 | 8.7 | 0.00 | 0.00 | 0.00 | 77 | 1016.9 |
| 20260509004539 | 52 | 327 | 0.9 | 4.3 | 0.00 | 0.00 | 0.00 | 77 | 1016.9 |
| 20260509003021 | 53 | 21 | 3.5 | 9.6 | 0.00 | 0.00 | 0.00 | 75 | 1016.8 |
| 20260509001515 | 53 | 14 | 7.8 | 11.3 | 0.00 | 0.00 | 0.00 | 75 | 1016.9 |
| 20260509000027 | 53 | 16 | 3.5 | 7.8 | 0.00 | 0.00 | 0.00 | 75 | 1016.9 |
| 20260508234525 | 53 | 355 | 2.6 | 7.0 | 0.00 | 0.00 | 0.00 | 76 | 1017.0 |
| 20260508233017 | 52 | 355 | 1.7 | 3.5 | 0.00 | 0.00 | 0.00 | 77 | 1016.9 |
| 20260508231530 | 52 | 336 | 0.0 | 1.7 | 0.00 | 0.00 | 0.00 | 77 | 1016.9 |
| 20260508230024 | 53 | 13 | 0.9 | 4.3 | 0.00 | 0.00 | 0.00 | 76 | 1016.9 |
| 20260508224517 | 53 | 355 | 5.2 | 7.0 | 0.00 | 0.00 | 0.00 | 75 | 1017.0 |
| 20260508223042 | 53 | 32 | 1.7 | 4.3 | 0.00 | 0.00 | 0.00 | 74 | 1017.0 |
| 20260508221523 | 53 | 350 | 3.5 | 7.0 | 0.00 | 0.00 | 0.00 | 76 | 1017.0 |
| 20260508220020 | 53 | 15 | 0.9 | 4.3 | 0.00 | 0.00 | 0.00 | 76 | 1017.0 |
| 20260508214513 | 54 | 10 | 0.0 | 0.0 | 0.00 | 0.00 | 0.00 | 77 | 1016.9 |
| 20260508213026 | 54 | 9 | 0.0 | 3.5 | 0.00 | 0.00 | 0.00 | 74 | 1016.8 |
| 20260508211520 | 54 | 12 | 0.0 | 2.6 | 0.00 | 0.00 | 0.00 | 76 | 1016.9 |
| 20260508210031 | 54 | 12 | 0.0 | 2.6 | 0.00 | 0.00 | 0.00 | 77 | 1016.8 |
| 20260508204528 | 54 | 49 | 0.0 | 5.2 | 0.00 | 0.00 | 0.00 | 77 | 1016.7 |
| 20260508203026 | 54 | 355 | 0.9 | 4.3 | 0.00 | 0.00 | 0.00 | 78 | 1016.7 |
| 20260508201520 | 54 | 17 | 0.0 | 0.9 | 0.00 | 0.00 | 0.00 | 77 | 1016.8 |
| 20260508200032 | 55 | 17 | 0.0 | 0.9 | 0.00 | 0.00 | 0.00 | 76 | 1016.6 |
| 20260508194525 | 55 | 17 | 0.9 | 2.6 | 0.00 | 0.00 | 0.00 | 77 | 1016.4 |
| 20260508193020 | 55 | 17 | 0.0 | 3.5 | 0.00 | 0.00 | 0.00 | 77 | 1016.2 |
| 20260508191538 | 56 | 355 | 0.9 | 4.3 | 0.00 | 0.00 | 0.00 | 76 | 1015.9 |
| 20260508190027 | 56 | 360 | 2.6 | 4.3 | 0.00 | 0.00 | 0.00 | 76 | 1015.7 |
| 20260508184523 | 56 | 360 | 2.6 | 3.5 | 0.00 | 0.00 | 0.00 | 76 | 1015.5 |
| 20260508183032 | 57 | 355 | 0.0 | 1.7 | 0.00 | 0.00 | 0.00 | 75 | 1015.3 |
| 20260508181519 | 58 | 360 | 0.0 | 3.5 | 0.00 | 0.00 | 0.00 | 72 | 1015.2 |
| 20260508180036 | 59 | 262 | 0.0 | 0.9 | 0.00 | 0.00 | 0.00 | 74 | 1015.1 |
| 20260508174526 | 59 | 360 | 0.0 | 0.0 | 0.00 | 0.00 | 0.00 | 74 | 1015.1 |
| 20260508173021 | 60 | 263 | 0.0 | 0.9 | 0.00 | 0.00 | 0.00 | 72 | 1015.0 |
| 20260508171533 | 61 | 262 | 0.0 | 0.9 | 0.00 | 0.00 | 0.00 | 69 | 1015.0 |
| 20260508170026 | 62 | 262 | 0.0 | 0.0 | 0.00 | 0.00 | 0.00 | 69 | 1015.0 |
| 20260508164519 | 61 | 263 | 0.0 | 0.9 | 0.00 | 0.00 | 0.00 | 68 | 1014.9 |
| 20260508163036 | 62 | 264 | 0.0 | 0.0 | 0.00 | 0.00 | 0.00 | 67 | 1014.9 |
| 20260508161524 | 62 | 254 | 0.0 | 2.6 | 0.00 | 0.00 | 0.00 | 67 | 1014.8 |
| 20260508160021 | 62 | 326 | 0.0 | 5.2 | 0.00 | 0.00 | 0.00 | 65 | 1014.9 |
| 20260508154528 | 61 | 360 | 1.7 | 5.2 | 0.00 | 0.00 | 0.00 | 62 | 1014.9 |
| 20260508153023 | 62 | 279 | 3.5 | 7.0 | 0.00 | 0.00 | 0.00 | 63 | 1014.9 |
| 20260508151515 | 62 | 206 | 0.9 | 3.5 | 0.00 | 0.00 | 0.00 | 71 | 1014.9 |
| 20260508150049 | 62 | 215 | 0.0 | 3.5 | 0.00 | 0.00 | 0.00 | 70 | 1014.9 |
| 20260508144520 | 63 | 189 | 0.9 | 2.6 | 0.00 | 0.00 | 0.00 | 71 | 1015.0 |
| 20260508143047 | 64 | 115 | 1.7 | 5.2 | 0.00 | 0.00 | 0.00 | 70 | 1015.0 |
| 20260508141526 | 64 | 187 | 1.7 | 7.0 | 0.00 | 0.00 | 0.00 | 69 | 1015.1 |
| 20260508140024 | 63 | 194 | 1.7 | 7.8 | 0.00 | 0.00 | 0.00 | 69 | 1015.1 |
| 20260508134516 | 63 | 196 | 4.3 | 10.4 | 0.00 | 0.00 | 0.00 | 69 | 1015.2 |
| 20260508133029 | 65 | 213 | 3.5 | 10.4 | 0.00 | 0.00 | 0.00 | 64 | 1015.3 |
| 20260508131522 | 65 | 184 | 1.7 | 7.0 | 0.00 | 0.00 | 0.00 | 71 | 1015.4 |
| 20260508130018 | 64 | 132 | 2.6 | 10.4 | 0.00 | 0.00 | 0.00 | 69 | 1015.5 |
| 20260508124529 | 64 | 360 | 4.3 | 7.8 | 0.00 | 0.00 | 0.00 | 64 | 1015.5 |
| 20260508123023 | 63 | 140 | 2.6 | 7.8 | 0.00 | 0.00 | 0.00 | 63 | 1015.5 |
| 20260508121514 | 63 | 117 | 1.7 | 7.0 | 0.00 | 0.00 | 0.00 | 70 | 1015.6 |
| 20260508120026 | 63 | 225 | 2.6 | 6.1 | 0.00 | 0.00 | 0.00 | 67 | 1015.6 |
| 20260508114549 | 63 | 153 | 2.6 | 7.8 | 0.00 | 0.01 | 0.00 | 64 | 1015.7 |
| 20260508113031 | 64 | 360 | 6.1 | 8.7 | 0.00 | 0.01 | 0.00 | 68 | 1015.7 |
| 20260508111524 | 63 | 168 | 0.0 | 3.5 | 0.00 | 0.01 | 0.00 | 61 | 1015.7 |
| 20260508110014 | 63 | 165 | 4.3 | 7.0 | 0.00 | 0.01 | 0.00 | 68 | 1015.9 |
| 20260508104533 | 63 | 131 | 0.9 | 7.8 | 0.00 | 0.01 | 0.00 | 67 | 1016.1 |
| 20260508103024 | 61 | 179 | 1.7 | 7.0 | 0.00 | 0.01 | 0.00 | 72 | 1016.1 |
| 20260508101518 | 60 | 140 | 2.6 | 7.0 | 0.00 | 0.01 | 0.00 | 74 | 1016.0 |
| 20260508100034 | 61 | 103 | 2.6 | 7.0 | 0.00 | 0.01 | 0.00 | 72 | 1016.0 |
| 20260508094522 | 61 | 214 | 2.6 | 7.0 | 0.00 | 0.01 | 0.00 | 69 | 1016.1 |
| 20260508093019 | 60 | 207 | 3.5 | 6.1 | 0.00 | 0.01 | 0.00 | 72 | 1016.1 |
| 20260508091533 | 60 | 360 | 3.5 | 5.2 | 0.00 | 0.01 | 0.00 | 76 | 1016.2 |
| 20260508090029 | 61 | 182 | 1.7 | 7.8 | 0.00 | 0.01 | 0.00 | 71 | 1016.1 |
| 20260508084517 | 61 | 208 | 4.3 | 10.4 | 0.00 | 0.01 | 0.00 | 69 | 1016.0 |
| 20260508083033 | 59 | 182 | 5.2 | 10.4 | 0.00 | 0.01 | 0.00 | 70 | 1015.9 |
| 20260508081527 | 59 | 208 | 3.5 | 7.8 | 0.00 | 0.01 | 0.00 | 69 | 1015.8 |
| 20260508080040 | 59 | 213 | 2.6 | 7.0 | 0.00 | 0.01 | 0.00 | 72 | 1015.7 |
| 20260508074517 | 59 | 360 | 1.7 | 5.2 | 0.00 | 0.02 | 0.00 | 69 | 1015.7 |
| 20260508073030 | 59 | 130 | 0.9 | 2.6 | 0.00 | 0.02 | 0.00 | 69 | 1015.6 |
| 20260508071523 | 60 | 229 | 0.0 | 3.5 | 0.00 | 0.02 | 0.00 | 67 | 1015.5 |
| 20260508070022 | 59 | 13 | 0.0 | 5.2 | 0.00 | 0.02 | 0.00 | 71 | 1015.4 |
| 20260508064540 | 58 | 44 | 3.5 | 7.0 | 0.00 | 0.04 | 0.00 | 71 | 1015.2 |
| 20260508063019 | 56 | 80 | 0.0 | 1.7 | 0.00 | 0.04 | 0.00 | 75 | 1015.2 |
| 20260508061537 | 55 | 75 | 1.7 | 7.8 | 0.00 | 0.04 | 0.00 | 75 | 1015.1 |
| 20260508060026 | 54 | 34 | 5.2 | 11.3 | 0.00 | 0.04 | 0.00 | 77 | 1015.0 |
| 20260508054539 | 53 | 5 | 7.8 | 11.3 | 0.00 | 0.07 | 0.00 | 77 | 1015.0 |
| 20260508053019 | 51 | 360 | 6.1 | 9.6 | 0.00 | 0.07 | 0.00 | 80 | 1015.0 |
| 20260508051537 | 51 | 21 | 5.2 | 9.6 | 0.00 | 0.07 | 0.00 | 81 | 1014.9 |
| 20260508050024 | 50 | 355 | 7.8 | 9.6 | 0.00 | 0.07 | 0.00 | 82 | 1014.8 |
| 20260508044519 | 50 | 16 | 0.9 | 4.3 | 0.00 | 0.10 | 0.00 | 83 | 1014.8 |
| 20260508043032 | 49 | 5 | 0.0 | 4.3 | 0.00 | 0.10 | 0.00 | 84 | 1014.7 |
| 20260508041524 | 49 | 5 | 1.7 | 3.5 | 0.00 | 0.10 | 0.00 | 84 | 1014.7 |
| 20260508040035 | 49 | 5 | 1.7 | 3.5 | 0.00 | 0.10 | 0.00 | 84 | 1014.7 |